#timestamp,LO_Frequency,Hit,StdDev 
1558504815.1,286046998.7,N
1558504835.8,286047000.6,N
1558504855.7,286047002.7,N
1558504875.5,286047000.9,N
1558504895.4,286046996.7,N
1558504915.2,286046996.6,N
1558504935.0,286046997.2,N
1558504935.9,286046997.2,N
1558504955.8,286046996.9,N
1558504975.6,286047000.6,N
1558504995.4,286047001.1,N
1558505015.3,286046999.2,N
1558505035.1,286046999.4,N
1558505055.9,286046998.9,N
1558505075.7,286047002.4,N
1558505095.5,286047001.4,N
1558505115.4,286047000.1,N
1558505135.2,286047001.0,N
1558505155.0,286046999.7,N
1558505155.9,286046999.7,N
1558505175.8,286047000.0,N
1558505195.6,286046998.5,N
1558505215.5,286046998.1,N
1558505235.3,286046996.6,N
1558505255.1,286046999.5,N
1558505275.9,286047000.4,N
1558505295.7,286046999.9,N
1558505315.5,286046999.8,N
1558505335.4,286047002.4,N
1558505355.2,286047001.9,N
1558505375.1,286047000.3,N
1558505376.0,286047000.3,N
1558505395.8,286046998.5,N
1558505415.6,286046998.4,N
1558505435.5,286047000.1,N
1558505455.3,286047000.3,N
1558505475.2,286047001.8,N
1558505495.9,286047004.3,N
1558505515.7,286047002.1,N
1558505535.6,286046999.9,N
1558505555.4,286046999.9,N
1558505575.2,286047000.0,N
1558505595.1,286047002.6,N
1558505596.0,286047002.6,N
1558505615.8,286046999.7,N
1558505635.7,286046999.7,N
1558505655.5,286047000.1,N
1558505675.3,286046999.8,N
1558505695.2,286046999.0,N
1558505715.0,286046997.4,N
1558505715.9,286046997.4,N
1558505735.7,286046996.6,N
1558505755.1,286047000.6,N
1558505756.0,286047000.6,N
1558505775.8,286047000.0,N
1558505795.6,286047000.2,N
1558505815.5,286047000.6,N
1558505835.8,286046998.9,N
1558505855.6,286046996.5,N
1558505875.5,286046998.8,N
1558505895.3,286047000.3,N
1558505915.1,286047001.0,N
1558505935.9,286046998.7,N
1558505955.7,286047001.1,N
1558505975.6,286046996.6,N
1558505995.4,286046999.5,N
1558506015.2,286046997.2,N
1558506035.1,286046993.3,Y
1558506036.0,286046993.3,P
1558506055.8,286046995.5,N
1558506075.7,286046997.6,N
1558506095.5,286046997.9,N
1558506115.3,286046994.9,N
1558506135.5,286046996.3,N
1558506155.3,286046994.5,N
1558506175.1,286046992.5,Y
1558506195.9,286046998.0,P
1558506215.7,286046996.7,P
1558506235.6,286046996.5,P
1558506255.4,286046998.9,N
1558506275.2,286046998.4,N
1558506295.1,286046995.7,Y
1558506315.9,286046995.4,P
1558506335.7,286046997.0,N
1558506355.5,286046995.3,P
1558506375.4,286047001.0,N
1558506395.2,286047002.7,N
1558506415.1,286047002.8,N
1558506416.0,286047002.8,N
1558506435.8,286047000.4,N
1558506455.6,286047002.8,N
1558506475.5,286047000.3,N
1558506495.3,286047000.2,N
1558506515.1,286047000.7,N
1558506535.9,286046997.1,N
1558506555.7,286046999.2,N
1558506575.6,286046997.3,N
1558506595.4,286046999.6,N
1558506615.2,286047000.0,N
1558506635.1,286047001.8,N
1558506636.0,286047001.8,N
1558506655.8,286047002.8,N
1558506675.6,286046999.6,N
1558506695.5,286046998.7,N
1558506715.3,286046998.3,N
1558506735.2,286047002.3,N
1558506755.9,286047000.2,N
1558506775.7,286047000.2,N
1558506795.0,286047001.5,N
1558506795.9,286047001.5,N
1558506815.8,286047002.4,N
1558506835.6,286047004.4,N
1558506855.4,286047002.9,N
1558506875.3,286047000.2,N
1558506895.5,286047000.4,N
1558506915.4,286046999.9,N
1558506935.2,286047000.4,N
1558506955.0,286047003.7,N
1558506955.9,286047003.7,N
1558506975.8,286047002.5,N
1558506995.2,286047002.7,N
1558507015.0,286047002.4,N
1558507015.9,286047002.4,N
1558507035.8,286047001.4,N
1558507055.6,286047003.7,N
1558507075.4,286047002.2,N
1558507095.3,286047001.6,N
1558507115.1,286047002.3,N
1558507135.8,286047000.2,N
1558507155.7,286046999.9,N
1558507175.5,286047000.2,N
1558507195.4,286047002.0,N
1558507215.2,286047001.8,N
1558507235.0,286047001.4,N
1558507235.9,286047001.4,N
1558507255.8,286047000.5,N
1558507275.6,286047000.4,N
1558507295.4,286047002.2,N
1558507315.3,286047001.3,N
1558507335.1,286047004.0,Y
1558507355.9,286047001.2,P
1558507375.7,286046998.6,P
1558507395.6,286047000.4,N
1558507415.4,286046999.3,N
1558507435.2,286046998.3,N
1558507455.1,286046998.8,N
1558507456.0,286046998.8,N
1558507475.8,286047002.7,N
1558507495.6,286047000.6,N
1558507515.5,286046999.0,N
1558507535.3,286046997.7,N
1558507555.2,286046999.3,N
1558507575.0,286046999.8,N
1558507575.9,286046999.8,N
1558507595.7,286047000.5,N
1558507615.6,286047002.4,N
1558507635.4,286046999.7,N
1558507655.3,286046999.7,N
1558507675.1,286047000.8,N
1558507676.0,286047000.8,N
1558507695.8,286046998.7,N
1558507715.7,286046999.8,N
1558507735.5,286047001.7,N
1558507755.3,286047001.6,N
1558507775.2,286047002.5,N
1558507795.0,286047002.2,N
1558507795.9,286047002.2,N
1558507815.8,286047002.3,N
1558507835.6,286047000.9,N
1558507855.4,286047001.0,N
1558507875.3,286047000.6,N
1558507895.1,286046998.9,N
1558507915.9,286046999.5,N
1558507935.7,286046997.4,N
1558507955.5,286046997.6,N
1558507975.4,286046996.7,N
1558507995.2,286047001.2,N
1558508015.0,286047000.5,N
1558508016.0,286047000.5,N
1558508035.8,286046998.8,N
1558508055.6,286047000.2,N
1558508075.5,286047001.0,N
1558508095.3,286047000.8,N
1558508115.1,286046999.8,N
1558508135.9,286047000.1,N
1558508155.7,286046999.7,N
1558508175.5,286046999.9,N
1558508195.4,286047000.6,N
1558508215.2,286047000.4,N
1558508235.1,286047000.2,N
1558508236.0,286047000.2,N
1558508255.8,286047000.1,N
1558508275.6,286047001.3,N
1558508295.5,286047001.5,N
1558508315.3,286047002.1,N
1558508335.2,286047002.3,N
1558508355.9,286047004.4,Y
1558508375.7,286047001.3,P
1558508395.6,286047006.0,P
